FW1924 Weather Reports


Display with metric or nautical units.
time (UTC)temp
F
wind
direction
speed
MPH
gust
MPH
rain 1hr
in
rain 24hr
in
rain mn
in
humidity
%
barometer
mb
20240224033035 36 248 0.0 3.0 0.00 0.00 0.00 71 1025.7
20240224031542 36 248 3.0 4.0 0.00 0.00 0.00 70 1025.8
20240224030034 36 248 3.0 5.0 0.00 0.00 0.00 70 1025.9
20240224024533 37 250 3.0 5.0 0.00 0.01 0.00 69 1025.9
20240224023033 37 252 4.0 5.0 0.00 0.01 0.00 68 1026.0
20240224021535 38 269 3.0 6.0 0.00 0.01 0.00 68 1025.8
20240224020047 38 270 5.0 8.0 0.00 0.01 0.00 67 1025.8
20240224014530 39 265 3.0 7.0 0.00 0.01 0.00 66 1025.8
20240224013031 40 277 4.0 8.0 0.00 0.01 0.00 65 1025.6
20240224011540 41 269 3.0 7.0 0.00 0.01 0.00 64 1025.4
20240224010033 42 323 3.0 8.0 0.00 0.01 0.00 62 1025.4
20240224004528 42 331 4.0 8.0 0.00 0.01 0.00 60 1025.4
20240224003026 43 355 4.0 6.0 0.00 0.01 0.00 59 1025.8
20240224001526 44 346 4.0 9.0 0.00 0.01 0.00 57 1025.9
20240224000036 44 5 5.0 9.0 0.00 0.01 0.00 56 1026.1
20240223234536 45 318 5.0 10.0 0.00 0.01 0.00 54 1026.2
20240223233022 45 331 3.0 9.0 0.00 0.01 0.00 54 1026.2
20240223231535 45 12 5.0 9.0 0.00 0.01 0.00 53 1026.3
20240223230020 46 5 4.0 8.0 0.00 0.01 0.00 53 1026.4
20240223224521 46 345 2.0 9.0 0.00 0.01 0.00 52 1026.4
20240223223119 45 317 3.0 11.0 0.00 0.01 0.00 53 1026.4
20240223221518 46 360 3.0 12.0 0.00 0.01 0.00 52 1026.6
20240223220016 47 333 5.0 10.0 0.00 0.01 0.00 52 1026.6
20240223214519 46 9 5.0 11.0 0.00 0.01 0.00 53 1026.7
20240223213016 47 343 6.0 13.0 0.00 0.01 0.00 53 1026.8
20240223211517 48 343 3.0 11.0 0.00 0.01 0.00 53 1027.0
20240223210014 46 39 1.0 8.0 0.00 0.01 0.00 54 1027.3
20240223204511 46 38 0.0 8.0 0.00 0.01 0.00 53 1027.4
20240223203009 48 331 6.0 9.0 0.00 0.01 0.00 52 1027.6
20240223201509 48 13 1.0 10.0 0.00 0.01 0.00 47 1027.8
20240223200006 47 11 4.0 8.0 0.00 0.02 0.00 50 1028.0
20240223194510 46 63 2.0 8.0 0.00 0.02 0.00 53 1028.4
20240223193103 46 94 0.0 10.0 0.00 0.02 0.00 52 1028.4
20240223191604 47 60 6.0 9.0 0.00 0.02 0.00 54 1028.7
20240223190055 46 115 2.0 9.0 0.00 0.02 0.00 60 1028.8
20240223184552 46 67 4.0 9.0 0.00 0.02 0.00 60 1029.0
20240223183105 45 135 1.0 7.0 0.00 0.02 0.00 62 1029.2
20240223181547 44 138 5.0 9.0 0.00 0.02 0.00 62 1029.4
20240223180044 44 94 4.0 9.0 0.00 0.02 0.00 62 1029.4
20240223174538 42 113 4.0 9.0 0.00 0.02 0.00 65 1029.5
20240223173037 42 130 4.0 11.0 0.00 0.02 0.00 66 1029.5
20240223171530 41 147 6.0 11.0 0.00 0.02 0.00 67 1029.4
20240223170026 40 164 6.0 11.0 0.00 0.02 0.00 69 1029.3
20240223164521 40 130 5.0 9.0 0.00 0.02 0.00 70 1029.2
20240223163016 39 164 6.0 10.0 0.00 0.02 0.00 71 1029.0
20240223161512 38 161 5.0 10.0 0.00 0.02 0.00 72 1029.0
20240223160019 37 170 5.0 7.0 0.00 0.02 0.00 71 1028.9
20240223154503 35 180 4.0 6.0 0.00 0.02 0.00 76 1028.8
20240223153059 34 187 3.0 5.0 0.00 0.02 0.00 77 1028.7
20240223151600 32 188 1.0 6.0 0.00 0.02 0.00 77 1028.6
20240223150051 31 188 4.0 6.0 0.00 0.02 0.00 78 1028.5
20240223144549 30 190 4.0 7.0 0.00 0.02 0.00 79 1028.4
20240223143046 30 196 5.0 8.0 0.00 0.02 0.00 78 1028.3
20240223141543 29 210 3.0 4.0 0.00 0.02 0.00 77 1028.4
20240223140043 30 210 0.0 3.0 0.00 0.02 0.00 77 1028.3
20240223134542 30 210 2.0 4.0 0.00 0.02 0.00 76 1028.3
20240223133049 31 210 2.0 4.0 0.00 0.02 0.00 77 1028.2
20240223131547 31 210 1.0 4.0 0.00 0.02 0.00 77 1028.3
20240223130040 31 211 2.0 5.0 0.00 0.02 0.00 78 1028.5
20240223124539 31 210 3.0 6.0 0.00 0.02 0.00 80 1028.4
20240223123036 31 210 3.0 6.0 0.00 0.02 0.00 80 1028.3
20240223121538 30 209 4.0 6.0 0.00 0.02 0.00 82 1028.3
20240223120031 29 211 4.0 7.0 0.00 0.02 0.00 83 1028.0
20240223114527 29 244 2.0 4.0 0.00 0.02 0.00 83 1028.1
20240223113023 29 244 1.0 3.0 0.00 0.02 0.00 83 1028.0
20240223111522 29 244 0.0 4.0 0.00 0.02 0.00 83 1028.0
20240223110027 29 244 1.0 3.0 0.00 0.03 0.00 83 1027.8
20240223104519 29 244 1.0 4.0 0.00 0.03 0.00 83 1027.8
20240223103016 29 244 2.0 3.0 0.00 0.03 0.00 83 1027.7
20240223101518 29 244 0.0 0.0 0.00 0.03 0.00 83 1027.6
20240223100013 30 244 0.0 0.0 0.00 0.03 0.00 83 1027.5
20240223094512 30 244 0.0 0.0 0.00 0.03 0.00 83 1027.6
20240223093012 30 244 0.0 2.0 0.00 0.03 0.00 83 1027.7
20240223091510 30 244 1.0 3.0 0.00 0.03 0.00 83 1027.7
20240223090009 30 244 2.0 4.0 0.00 0.03 0.00 82 1027.7
20240223084506 30 244 3.0 5.0 0.00 0.03 0.00 82 1027.8
20240223083006 30 244 3.0 5.0 0.00 0.03 0.00 82 1027.7
20240223081505 30 244 3.0 5.0 0.00 0.03 0.00 82 1027.8
20240223080009 31 244 3.0 5.0 0.00 0.03 0.00 82 1027.7
20240223074601 31 244 3.0 4.0 0.00 0.03 0.00 82 1027.7
20240223073100 30 244 3.0 4.0 0.00 0.03 0.00 82 1027.8
20240223071602 30 244 3.0 4.0 0.00 0.03 0.00 81 1027.6
20240223070057 31 244 2.0 3.0 0.00 0.03 0.00 80 1027.6
20240223064553 31 244 0.0 0.0 0.00 0.03 0.03 80 1027.6
20240223063108 31 244 1.0 3.0 0.00 0.03 0.03 80 1027.7
20240223061554 32 244 0.0 4.0 0.00 0.03 0.03 80 1027.8
20240223060051 32 244 3.0 4.0 0.00 0.03 0.03 80 1027.7
20240223054551 32 244 3.0 5.0 0.00 0.03 0.03 80 1028.1
20240223053049 32 244 3.0 5.0 0.00 0.03 0.03 80 1027.4
20240223051549 32 244 2.0 4.0 0.00 0.03 0.03 80 1027.4
20240223050048 32 244 3.0 4.0 0.00 0.03 0.03 80 1027.5
20240223044548 33 244 3.0 5.0 0.00 0.03 0.03 80 1027.4
20240223043046 33 244 3.0 5.0 0.00 0.03 0.03 80 1027.2
20240223041545 33 244 2.0 5.0 0.00 0.03 0.03 81 1026.9
20240223040049 33 245 3.0 7.0 0.00 0.03 0.03 81 1026.7
20240223034544 33 269 2.0 4.0 0.00 0.03 0.03 80 1026.7